Regional Weather Roundup
Issued by NWS

Home | Current Version | Previous Version | Text Only | Print | Product List | Glossary On
Versions: 1 2 3 4 5 6 7 8 9 10 11 12 13 14 15 16 17 18 19 20 21 22 23 24 25 26 27 28 29 30 31 32 33 34 35 36 37 38 39 40 41 42 43 44 45 46 47 48 49 50
281
ASUS45 KCYS 081710
RWRWY

WYOMING REGIONAL WEATHER ROUNDUP
NATIONAL WEATHER SERVICE CHEYENNE WY
1000 AM MST MON FEB 08 2016

NOTE:  "FAIR" INDICATES FEW OR NO CLOUDS BELOW 12,000 FEET
WITH NO SIGNIFICANT WEATHER AND/OR OBSTRUCTIONS TO VISIBILITY.

WYZ001-081800-
YELLOWSTONE NATIONAL PARK

CITY           SKY/WX    TMP DP  RH WIND       PRES   REMARKS
LK YELLOWSTONE   N/A     20  13  74 CALM      30.64R
W YELLOWSTONE  NOT AVBL

$$
WYZ002>013-054>058-071-098>099-081800-
NORTHERN WYOMING

CITY           SKY/WX    TMP DP  RH WIND       PRES   REMARKS
JACKSON        SUNNY     12  10  92 CALM      30.65S
CODY           FAIR      37  19  48 CALM      30.45S
GREYBULL       FAIR      28  19  69 S3        30.50S
WORLAND        FAIR      25  17  72 CALM      30.49R
SHERIDAN       PTSUNNY   41  18  38 NE3       30.40S
BUFFALO        CLOUDY    38  22  52 N14G23    30.39S WCI  30
GILLETTE       CLOUDY    31  11  43 W7        30.40R WCI  24
HULETT         CLOUDY    30  10  43 W6        30.39S WCI  24
NEWCASTLE      FAIR      32   5  32 NW24      30.35R WCI  19

$$
WYZ014>020-022>026-101>103-081800-
CENTRAL WYOMING

CITY           SKY/WX    TMP DP  RH WIND       PRES   REMARKS
BIG PINEY      FAIR      35  23  61 N20       30.56R WCI  24
PINEDALE       FAIR      32  23  69 W26G32    30.53S WCI  18
DUBOIS         FAIR      37  18  44 W36G46    30.45F WCI  24
LANDER         FAIR      23  13  65 CALM      30.47S
RIVERTON       FAIR      22  13  68 CALM      30.49R
CASPER         FAIR      29  17  61 SW15      30.45R WCI  18
DOUGLAS        CLOUDY    29  18  63 NW15        N/A  WCI  18

$$
WYZ021-027>030-104>119-081800-
SOUTHERN WYOMING

CITY           SKY/WX    TMP DP  RH WIND       PRES   REMARKS
EVANSTON       FAIR      23  14  68 CALM      30.64R
FORT BRIDGER   SUNNY     34  21  60 W21       30.63R WCI  22
ROCK SPRINGS   FAIR      30  19  63 SW20      30.56  WCI  17
DIXON          FAIR      20  12  70 SE8       30.62R WCI  10
RAWLINS        FAIR      26  17  68 W12G18    30.51R WCI  16
SARATOGA       FAIR      32  21  64 W13       30.53S WCI  22
LARAMIE          N/A     35  22  58 N16G25    30.42R WCI  25
CHEYENNE       FAIR      37  21  52 N16G23    30.38R WCI  28
TORRINGTON     CLOUDY    33  17  51 W12       30.41R WCI  24
PINE BLUFFS    PTSUNNY   34  23  64 NW23G32   30.39R WCI  22

$$




USA.gov is the U.S. government's official web portal to all federal, state and local government web resources and services.